QPF
0.00 0.00 0.00 0.00 0.00 0.00 0.00 0.00 0.00 0.00 0.00 0.00 0.00 0.00 0.00 0.00 0.00 0.00 0.00 0.00 0.00 0.00 0.00 0.00 0.00 0.00 0.00 0.00 0.00 0.00 0.00 0.00 0.00 0.00 0.00 0.00 0.00 0.01 0.09 0.12 0.09 0.03 0.00 0.00
0.00 0.00 0.00 0.00 0.00 0.00 0.00 0.00 0.00 0.00 0.00 0.00 0.00 0.00 0.00 0.00 0.00 0.00 0.00 0.00 0.00 0.00 0.00 0.00 0.00 0.00 0.00 0.00 0.00 0.00 0.00 0.00 0.00 0.00 0.00 0.00 0.00 0.02 0.10 0.12 0.07 0.05 0.00 0.00
0.00 0.00 0.00 0.00 0.00 0.00 0.00 0.00 0.00 0.00 0.00 0.00 0.00 0.00 0.00 0.00 0.00 0.00 0.00 0.00 0.00 0.00 0.00 0.00 0.00 0.00 0.00 0.00 0.00 0.00 0.00 0.00 0.00 0.00 0.00 0.00 0.00 0.04 0.05 0.10 0.06 0.02 0.00 0.00
0.00 0.00 0.00 0.00 0.00 0.00 0.00 0.00 0.00 0.00 0.00 0.00 0.00 0.00 0.00 0.00 0.00 0.00 0.00 0.00 0.00 0.00 0.00 0.00 0.00 0.00 0.00 0.00 0.00 0.00 0.00 0.00 0.00 0.00 0.00 0.00 0.00 0.01 0.10 0.11 0.04 0.00 0.00 0.00
0.00 0.00 0.00 0.00 0.00 0.00 0.00 0.00 0.00 0.00 0.00 0.00 0.00 0.00 0.00 0.00 0.00 0.00 0.00 0.00 0.00 0.00 0.00 0.00 0.00 0.00 0.00 0.00 0.00 0.00 0.00 0.00 0.00 0.00 0.00 0.00 0.00 0.04 0.11 0.09 0.04 0.01 0.00 0.00
0.00 0.00 0.00 0.00 0.00 0.00 0.00 0.00 0.00 0.00 0.00 0.00 0.00 0.00 0.00 0.00 0.00 0.00 0.00 0.00 0.00 0.00 0.00 0.00 0.00 0.00 0.00 0.00 0.00 0.00 0.00 0.00 0.00 0.03 0.02 0.01 0.02 0.03 0.03 0.04 0.04 0.01 0.01 0.00
0.00 0.00 0.00 0.00 0.00 0.00 0.00 0.00 0.00 0.00 0.00 0.00 0.00 0.00 0.00 0.00 0.00 0.00 0.00 0.00 0.00 0.00 0.00 0.00 0.00 0.00 0.00 0.00 0.00 0.00 0.00 0.00 0.00 0.04 0.03 0.01 0.02 0.02 0.06 0.06 0.03 0.01 0.01 0.01
0.00 0.00 0.00 0.00 0.00 0.00 0.00 0.00 0.00 0.00 0.00 0.00 0.00 0.00 0.00 0.00 0.00 0.00 0.00 0.00 0.00 0.00 0.00 0.00 0.00 0.00 0.00 0.00 0.00 0.00 0.00 0.00 0.00 0.02 0.07 0.06 0.03 0.04 0.11 0.13 0.08 0.03 0.02 0.01
0.00 0.00 0.00 0.00 0.00 0.00 0.00 0.00 0.00 0.00 0.00 0.00 0.00 0.00 0.00 0.00 0.00 0.00 0.00 0.00 0.00 0.00 0.00 0.00 0.00 0.00 0.00 0.00 0.00 0.00 0.00 0.00 0.00 0.00 0.01 0.03 0.05 0.10 0.13 0.13 0.13 0.09 0.03 0.01
0.00 0.00 0.00 0.00 0.00 0.00 0.00 0.00 0.00 0.00 0.00 0.00 0.00 0.00 0.00 0.00 0.00 0.00 0.00 0.00 0.00 0.00 0.00 0.00 0.00 0.00 0.00 0.00 0.00 0.00 0.00 0.01 0.01 0.00 0.01 0.02 0.06 0.10 0.13 0.13 0.12 0.08 0.05 0.02
0.00 0.00 0.00 0.00 0.00 0.00 0.00 0.00 0.00 0.00 0.00 0.00 0.00 0.00 0.00 0.00 0.00 0.00 0.00 0.00 0.00 0.00 0.00 0.00 0.00 0.00 0.00 0.00 0.00 0.00 0.00 0.00 0.00 0.02 0.06 0.07 0.07 0.10 0.11 0.12 0.09 0.06 0.03 0.01
0.00 0.00 0.00 0.00 0.00 0.00 0.00 0.00 0.00 0.00 0.00 0.00 0.00 0.00 0.00 0.00 0.00 0.00 0.00 0.00 0.00 0.00 0.00 0.00 0.00 0.00 0.00 0.00 0.00 0.00 0.00 0.01 0.05 0.08 0.09 0.10 0.13 0.13 0.12 0.08 0.05 0.03 0.01 0.01
0.00 0.00 0.00 0.00 0.00 0.00 0.00 0.00 0.00 0.00 0.00 0.00 0.00 0.00 0.00 0.00 0.00 0.00 0.00 0.00 0.00 0.00 0.00 0.00 0.00 0.00 0.00 0.00 0.00 0.00 0.01 0.03 0.03 0.02 0.07 0.12 0.10 0.09 0.08 0.04 0.01 0.00 0.00 0.00
0.00 0.00 0.00 0.00 0.00 0.00 0.00 0.00 0.00 0.00 0.00 0.00 0.00 0.00 0.00 0.00 0.00 0.00 0.00 0.00 0.00 0.00 0.00 0.00 0.00 0.00 0.00 0.01 0.01 0.02 0.02 0.01 0.03 0.03 0.04 0.06 0.08 0.07 0.03 0.01 0.00 0.00 0.00 0.00
0.00 0.00 0.00 0.00 0.00 0.00 0.00 0.00 0.00 0.00 0.00 0.00 0.00 0.00 0.00 0.00 0.00 0.00 0.00 0.00 0.00 0.00 0.00 0.00 0.00 0.00 0.00 0.01 0.01 0.01 0.00 0.01 0.02 0.02 0.01 0.02 0.02 0.01 0.00 0.00 0.00 0.00 0.00 0.00
0.00 0.00 0.00 0.00 0.00 0.00 0.00 0.00 0.00 0.00 0.00 0.00 0.00 0.00 0.00 0.00 0.00 0.00 0.00 0.00 0.00 0.00 0.00 0.00 0.00 0.00 0.00 0.00 0.00 0.00 0.00 0.00 0.00 0.00 0.00 0.00 0.00 0.00 0.00 0.00 0.00 0.00 0.00 0.01
0.00 0.00 0.00 0.00 0.00 0.00 0.00 0.00 0.00 0.00 0.00 0.00 0.00 0.00 0.00 0.00 0.00 0.00 0.00 0.00 0.00 0.00 0.00 0.00 0.00 0.00 0.00 0.00 0.00 0.00 0.00 0.00 0.00 0.00 0.00 0.00 0.00 0.00 0.00 0.00 0.00 0.01 0.02 0.03
0.00 0.00 0.00 0.00 0.00 0.00 0.00 0.00 0.00 0.00 0.00 0.00 0.00 0.00 0.00 0.00 0.00 0.00 0.00 0.00 0.00 0.00 0.00 0.00 0.00 0.00 0.00 0.00 0.00 0.00 0.00 0.00 0.00 0.00 0.00 0.00 0.00 0.00 0.00 0.00 0.01 0.03 0.06 0.10
0.00 0.00 0.00 0.00 0.00 0.00 0.00 0.00 0.00 0.00 0.00 0.00 0.00 0.00 0.00 0.00 0.00 0.00 0.00 0.00 0.00 0.00 0.00 0.00 0.00 0.00 0.00 0.00 0.00 0.00 0.00 0.00 0.00 0.00 0.00 0.00 0.00 0.00 0.01 0.02 0.03 0.05 0.03 0.00
0.00 0.00 0.00 0.00 0.00 0.00 0.00 0.00 0.00 0.00 0.00 0.00 0.00 0.00 0.00 0.00 0.00 0.00 0.00 0.00 0.00 0.00 0.00 0.00 0.00 0.00 0.00 0.00 0.00 0.00 0.00 0.00 0.00 0.00 0.00 0.00 0.00 0.00 0.01 0.01 0.00 0.00 0.00 0.00
0.00 0.00 0.00 0.00 0.00 0.00 0.00 0.00 0.00 0.00 0.00 0.00 0.00 0.00 0.00 0.00 0.00 0.00 0.00 0.00 0.00 0.00 0.00 0.00 0.00 0.00 0.00 0.00 0.00 0.00 0.00 0.00 0.00 0.00 0.00 0.00 0.00 0.00 0.00 0.00 0.00 0.00 0.00 0.00
0.00 0.00 0.00 0.00 0.00 0.00 0.00 0.00 0.00 0.00 0.00 0.00 0.00 0.00 0.00 0.00 0.00 0.00 0.00 0.00 0.00 0.00 0.00 0.00 0.00 0.00 0.00 0.00 0.00 0.00 0.00 0.00 0.00 0.00 0.00 0.00 0.00 0.00 0.00 0.00 0.00 0.00 0.00 0.00
0.00 0.00 0.00 0.00 0.00 0.00 0.00 0.00 0.00 0.00 0.00 0.00 0.00 0.00 0.00 0.00 0.00 0.00 0.00 0.00 0.00 0.00 0.00 0.00 0.00 0.00 0.00 0.00 0.00 0.00 0.00 0.00 0.00 0.00 0.00 0.00 0.00 0.00 0.00 0.00 0.00 0.00 0.00 0.00
0.00 0.00 0.00 0.00 0.00 0.00 0.00 0.00 0.00 0.00 0.00 0.00 0.00 0.00 0.00 0.00 0.00 0.00 0.00 0.00 0.00 0.00 0.00 0.00 0.00 0.00 0.00 0.00 0.00 0.00 0.00 0.00 0.00 0.00 0.00 0.00 0.00 0.00 0.00 0.00 0.00 0.00 0.00 0.00
0.00 0.01 0.00 0.00 0.00 0.00 0.00 0.00 0.00 0.00 0.00 0.00 0.00 0.00 0.00 0.00 0.00 0.00 0.00 0.00 0.00 0.00 0.00 0.00 0.00 0.00 0.00 0.00 0.00 0.00 0.00 0.00 0.00 0.00 0.00 0.00 0.00 0.00 0.00 0.00 0.00 0.00 0.00 0.00
0.00 0.00 0.00 0.00 0.00 0.00 0.00 0.00 0.00 0.00 0.00 0.00 0.00 0.00 0.00 0.00 0.00 0.00 0.00 0.00 0.00 0.00 0.00 0.00 0.00 0.00 0.00 0.00 0.00 0.00 0.00 0.00 0.00 0.00 0.00 0.00 0.00 0.00 0.00 0.00 0.00 0.00 0.00 0.00
MSLP
1012.42 1012.38 1012.32 1012.19 1012.07 1011.94 1011.77 1011.50 1011.27 1011.01 1011.00 1011.24 1011.27 1011.40 1011.78 1012.65 1013.19 1013.54 1013.83 1014.26 1014.66 1014.76 1015.47 1015.94 1016.52 1017.15 1017.78 1018.34 1018.67 1019.02 1019.34 1019.71 1020.14 1020.59 1020.98 1021.21 1021.42 1021.84 1022.14 1022.59 1022.97 1023.08 1022.94 1023.46
1012.64 1012.24 1011.91 1012.07 1012.18 1011.87 1011.86 1011.40 1011.32 1011.32 1011.02 1011.09 1011.06 1010.83 1011.16 1011.77 1011.91 1012.36 1012.96 1013.50 1013.75 1014.27 1014.90 1015.47 1016.02 1016.51 1016.91 1017.28 1017.79 1018.28 1018.71 1019.27 1019.70 1020.02 1020.22 1020.55 1021.05 1021.56 1021.92 1022.57 1022.66 1023.01 1023.21 1023.32
1012.25 1011.94 1011.80 1011.84 1011.88 1011.85 1011.62 1011.23 1011.15 1011.33 1011.15 1011.34 1010.97 1010.79 1011.04 1011.54 1011.88 1012.10 1012.28 1012.59 1013.10 1013.37 1013.77 1014.38 1015.00 1015.54 1016.11 1016.39 1016.76 1017.27 1017.75 1018.35 1019.11 1019.52 1019.96 1020.43 1021.10 1021.62 1022.09 1022.24 1022.61 1022.87 1023.16 1023.30
1012.06 1011.71 1011.72 1011.73 1011.64 1011.48 1011.24 1011.00 1010.96 1011.29 1011.39 1011.29 1011.32 1011.17 1010.88 1010.91 1011.22 1011.37 1011.38 1011.66 1011.92 1012.44 1013.10 1013.50 1014.00 1014.49 1014.90 1015.48 1016.19 1016.69 1017.31 1017.90 1018.56 1019.15 1019.50 1019.69 1020.08 1020.61 1021.17 1021.71 1022.25 1022.40 1022.93 1023.28
1011.60 1011.47 1011.53 1011.43 1011.22 1011.20 1010.97 1010.98 1011.09 1011.20 1011.43 1011.65 1011.62 1011.47 1010.45 1010.68 1010.53 1010.13 1010.27 1010.36 1010.76 1011.30 1011.93 1012.41 1012.74 1013.05 1014.05 1014.87 1015.38 1015.95 1016.73 1017.33 1017.93 1018.58 1018.97 1019.43 1019.84 1020.29 1021.04 1021.62 1021.97 1022.42 1022.93 1023.20
1011.30 1011.20 1011.14 1010.77 1010.67 1010.86 1010.99 1011.32 1011.62 1012.02 1011.99 1012.03 1011.51 1011.27 1010.25 1009.79 1009.46 1009.36 1009.29 1009.69 1009.96 1010.35 1010.83 1011.24 1011.77 1012.83 1013.32 1014.18 1014.81 1015.31 1015.89 1016.60 1017.31 1017.98 1018.44 1018.92 1019.42 1019.99 1020.52 1021.05 1021.50 1022.03 1022.47 1022.78
1011.34 1011.06 1010.71 1010.62 1010.66 1010.85 1011.07 1011.54 1011.98 1012.31 1012.42 1012.06 1011.72 1011.43 1009.87 1008.93 1008.88 1008.89 1008.72 1008.82 1008.93 1009.40 1010.11 1010.53 1011.12 1011.79 1012.50 1013.23 1013.97 1014.66 1015.24 1015.75 1016.52 1017.33 1017.92 1018.27 1018.64 1019.40 1019.80 1020.40 1020.88 1021.57 1022.01 1022.54
1010.98 1010.92 1010.42 1010.22 1010.11 1010.31 1010.89 1011.36 1011.83 1012.20 1012.61 1012.27 1011.79 1010.78 1009.11 1008.67 1008.63 1008.67 1008.60 1008.34 1008.59 1008.97 1009.42 1009.93 1010.16 1010.93 1011.65 1012.39 1013.20 1013.95 1014.45 1015.05 1015.71 1016.35 1016.88 1017.40 1017.97 1018.79 1019.34 1019.98 1020.52 1021.07 1021.52 1021.95
1010.60 1010.54 1010.03 1009.99 1009.86 1009.99 1010.81 1011.43 1011.68 1012.37 1013.52 1012.83 1011.57 1010.59 1009.24 1008.76 1008.59 1008.45 1008.11 1007.99 1008.37 1008.93 1009.27 1009.54 1010.13 1010.66 1011.22 1011.89 1012.50 1013.06 1013.79 1014.34 1014.98 1015.53 1016.23 1016.86 1017.47 1018.17 1018.81 1019.51 1020.15 1020.64 1021.36 1021.98
1009.66 1010.18 1010.12 1010.07 1010.08 1010.42 1010.57 1011.08 1011.87 1012.36 1012.82 1012.63 1011.75 1010.79 1009.63 1008.88 1008.65 1008.64 1008.46 1008.31 1008.32 1008.77 1009.27 1009.61 1010.03 1010.51 1010.98 1011.62 1012.34 1013.04 1013.55 1013.83 1014.36 1015.20 1015.76 1016.36 1017.09 1017.77 1018.36 1019.04 1019.67 1020.49 1021.28 1022.10
1009.48 1009.80 1010.66 1010.33 1009.99 1009.89 1010.78 1011.01 1011.75 1012.15 1012.50 1012.30 1011.87 1010.46 1009.21 1008.80 1008.67 1008.69 1008.80 1008.58 1008.48 1008.46 1008.96 1009.52 1009.88 1010.39 1010.86 1011.47 1012.04 1012.62 1013.17 1013.65 1014.17 1014.76 1015.48 1016.25 1016.93 1017.55 1018.10 1018.77 1019.58 1020.38 1021.19 1022.09
1009.06 1009.49 1010.20 1009.99 1009.88 1009.77 1009.83 1010.34 1011.08 1011.86 1012.56 1012.63 1011.88 1010.09 1008.69 1008.68 1008.77 1008.84 1008.68 1008.77 1008.67 1008.76 1009.06 1009.55 1009.91 1010.43 1010.91 1011.45 1012.03 1012.42 1013.15 1013.67 1014.07 1014.61 1015.24 1016.00 1016.79 1017.37 1018.03 1018.70 1019.31 1020.18 1021.04 1021.78
1008.64 1009.40 1009.97 1010.09 1010.38 1010.22 1010.14 1010.25 1010.60 1011.21 1011.77 1011.88 1011.50 1009.95 1008.84 1008.64 1008.53 1008.60 1008.69 1008.75 1009.01 1009.05 1009.35 1009.72 1010.28 1010.81 1011.28 1011.68 1012.15 1012.76 1013.24 1013.52 1014.05 1014.94 1015.60 1016.38 1017.10 1017.63 1018.25 1018.90 1019.57 1020.20 1020.91 1021.58
1007.52 1008.67 1009.20 1009.45 1009.37 1009.52 1009.93 1009.88 1010.27 1010.48 1011.19 1010.85 1010.34 1009.49 1008.86 1008.51 1008.59 1008.45 1008.67 1009.07 1009.23 1009.59 1009.91 1010.32 1010.65 1010.93 1011.37 1011.86 1012.16 1012.76 1013.57 1014.22 1014.87 1015.50 1016.18 1016.99 1017.65 1018.24 1018.86 1019.41 1019.81 1020.70 1021.39 1021.87
1007.61 1008.61 1009.18 1009.02 1008.96 1009.13 1009.00 1009.16 1009.76 1010.07 1009.82 1010.00 1009.35 1009.19 1008.65 1008.41 1008.54 1008.92 1009.42 1009.60 1009.82 1010.29 1010.68 1010.88 1011.15 1011.37 1011.75 1012.24 1012.71 1013.35 1014.04 1014.68 1015.30 1016.03 1016.76 1017.48 1018.03 1018.66 1019.23 1019.79 1020.46 1021.16 1021.64 1022.34
1008.21 1008.80 1009.26 1009.55 1009.39 1009.29 1009.05 1008.79 1009.18 1009.42 1009.47 1009.54 1009.22 1008.90 1008.29 1008.67 1009.12 1009.72 1010.06 1010.47 1011.05 1011.46 1011.86 1012.08 1012.31 1012.46 1012.83 1013.24 1013.63 1014.28 1014.91 1015.52 1016.01 1016.64 1017.52 1018.19 1018.66 1019.36 1020.09 1020.79 1021.32 1021.79 1022.35 1022.66
1008.90 1009.03 1009.88 1010.25 1010.06 1009.74 1009.35 1008.37 1008.35 1008.46 1008.42 1008.33 1008.41 1008.05 1008.37 1009.05 1009.76 1010.55 1011.07 1011.52 1012.26 1012.76 1013.08 1013.30 1013.52 1013.74 1014.06 1014.43 1014.84 1015.36 1015.89 1016.39 1016.92 1017.62 1018.40 1019.05 1019.59 1020.30 1020.88 1021.33 1021.81 1022.34 1022.82 1023.06
1008.91 1009.59 1010.17 1010.70 1010.66 1009.61 1008.03 1007.76 1007.71 1007.79 1007.45 1007.78 1007.94 1008.10 1008.55 1009.40 1010.88 1011.66 1012.23 1012.57 1013.27 1013.85 1014.11 1014.38 1014.63 1014.89 1015.21 1015.54 1015.91 1016.35 1016.83 1017.33 1017.88 1018.59 1019.28 1019.92 1020.39 1020.96 1021.52 1022.08 1022.45 1022.77 1022.95 1023.17
1008.52 1009.63 1010.49 1010.81 1010.36 1008.97 1007.92 1007.60 1007.48 1007.44 1006.49 1006.66 1007.32 1008.06 1009.32 1010.49 1011.54 1012.79 1013.46 1013.84 1014.37 1014.85 1015.14 1015.39 1015.65 1015.92 1016.18 1016.44 1016.78 1016.96 1017.49 1018.02 1018.65 1019.51 1020.13 1020.64 1021.08 1021.43 1021.89 1022.30 1022.66 1022.84 1022.87 1022.86
1009.13 1009.38 1009.81 1010.61 1009.85 1008.50 1007.22 1006.53 1006.67 1006.98 1006.22 1006.26 1006.89 1007.92 1009.38 1010.82 1011.62 1012.67 1013.95 1014.64 1015.12 1015.50 1015.83 1016.10 1016.43 1016.72 1016.95 1017.33 1017.45 1017.67 1018.35 1018.97 1019.63 1020.25 1020.80 1021.27 1021.45 1021.75 1022.03 1022.38 1022.54 1022.76 1022.85 1022.89
1009.49 1009.74 1009.81 1009.66 1008.92 1007.59 1006.57 1006.47 1006.72 1007.14 1006.06 1006.05 1006.69 1007.66 1009.07 1010.25 1011.20 1012.24 1014.10 1015.10 1015.59 1016.03 1016.45 1016.81 1017.00 1017.20 1017.69 1018.09 1018.29 1018.64 1019.35 1019.93 1020.48 1020.90 1021.33 1021.68 1021.93 1022.11 1022.47 1022.71 1022.89 1022.96 1022.89 1022.88
1008.12 1008.73 1009.16 1009.05 1008.27 1006.91 1006.00 1006.85 1006.48 1005.19 1005.78 1006.14 1007.03 1007.93 1009.21 1010.59 1012.08 1013.18 1014.43 1015.35 1016.05 1016.44 1016.92 1017.17 1017.34 1017.98 1018.66 1018.95 1019.03 1019.56 1020.17 1020.83 1021.20 1021.56 1021.99 1022.43 1022.71 1022.89 1023.00 1023.05 1023.09 1023.05 1023.00 1022.89
1007.85 1006.40 1006.50 1006.75 1005.80 1005.02 1004.87 1004.46 1004.70 1005.07 1005.55 1006.39 1007.10 1008.32 1009.52 1011.04 1012.41 1013.55 1014.55 1015.51 1016.24 1016.72 1017.15 1017.67 1018.04 1018.74 1019.48 1019.82 1020.04 1020.48 1021.27 1021.55 1021.92 1022.29 1022.75 1023.11 1023.35 1023.46 1023.49 1023.37 1023.39 1023.35 1023.35 1023.23
1007.01 1005.98 1005.67 1006.04 1004.92 1004.73 1004.67 1004.93 1005.22 1005.49 1005.77 1006.33 1007.07 1008.06 1009.45 1010.80 1012.51 1013.74 1014.85 1015.72 1016.37 1017.06 1017.61 1018.23 1018.72 1019.47 1020.32 1020.95 1021.29 1021.69 1022.07 1022.24 1022.48 1022.88 1023.28 1023.59 1023.70 1023.80 1023.90 1023.90 1023.98 1023.93 1023.90 1023.75
1005.53 1005.55 1005.25 1005.16 1004.76 1005.04 1004.91 1004.89 1005.13 1005.92 1006.46 1007.01 1007.96 1008.82 1009.73 1010.90 1012.58 1013.52 1014.69 1015.69 1016.57 1017.40 1018.22 1018.85 1019.50 1020.39 1021.34 1021.89 1022.39 1022.75 1022.87 1022.98 1023.14 1023.48 1023.79 1024.03 1024.18 1024.23 1024.19 1024.32 1024.50 1024.55 1024.56 1024.64
1004.46 1004.33 1004.52 1003.65 1003.09 1003.45 1003.44 1003.73 1005.08 1006.05 1006.65 1007.35 1008.12 1009.65 1010.73 1011.34 1012.35 1013.89 1015.17 1016.20 1017.02 1017.93 1018.79 1019.63 1020.62 1021.40 1022.29 1022.77 1023.12 1023.52 1023.71 1023.71 1023.70 1024.01 1024.34 1024.66 1024.63 1024.66 1024.62 1024.59 1024.59 1024.90 1025.02 1024.73
Thickness
5632 5631 5625 5629 5628 5628 5627 5628 5630 5636 5644 5642 5640 5642 5644 5639 5637 5636 5636 5634 5632 5633 5631 5630 5628 5623 5618 5614 5613 5612 5610 5608 5606 5603 5601 5601 5601 5598 5598 5594 5590 5591 5593 5588
5626 5621 5632 5629 5626 5628 5624 5627 5628 5633 5641 5639 5641 5647 5649 5645 5647 5646 5643 5639 5640 5638 5635 5634 5631 5628 5626 5623 5620 5617 5615 5610 5607 5607 5606 5605 5602 5598 5595 5589 5591 5588 5587 5585
5621 5630 5630 5629 5626 5623 5625 5627 5630 5629 5637 5635 5642 5646 5645 5646 5647 5648 5649 5649 5646 5644 5642 5640 5637 5633 5631 5629 5627 5624 5622 5619 5612 5609 5606 5603 5598 5595 5591 5591 5588 5586 5582 5581
5624 5630 5627 5625 5623 5627 5622 5634 5635 5629 5629 5626 5636 5627 5640 5646 5645 5648 5654 5652 5652 5651 5648 5647 5645 5642 5640 5637 5632 5629 5625 5621 5615 5611 5609 5607 5605 5601 5596 5592 5587 5584 5579 5575
5626 5624 5622 5622 5625 5629 5630 5633 5634 5633 5627 5626 5625 5627 5647 5640 5644 5654 5657 5662 5661 5659 5656 5652 5652 5653 5648 5641 5637 5634 5628 5623 5619 5613 5611 5606 5603 5600 5593 5587 5584 5579 5573 5568
5626 5631 5629 5633 5634 5632 5632 5628 5621 5617 5619 5611 5625 5627 5640 5649 5655 5659 5666 5664 5664 5663 5661 5661 5660 5652 5649 5643 5638 5635 5631 5626 5620 5614 5610 5607 5602 5598 5593 5587 5582 5576 5569 5562
5619 5623 5631 5632 5630 5631 5627 5618 5608 5607 5605 5611 5618 5617 5642 5657 5661 5662 5666 5669 5671 5669 5664 5662 5659 5656 5653 5647 5642 5638 5633 5629 5622 5616 5610 5607 5604 5598 5593 5587 5580 5571 5564 5557
5611 5607 5625 5631 5634 5630 5621 5622 5608 5598 5602 5614 5616 5620 5650 5657 5661 5662 5664 5667 5669 5669 5668 5665 5664 5660 5655 5650 5645 5640 5637 5632 5626 5620 5615 5610 5605 5596 5591 5583 5575 5567 5561 5555
5602 5608 5626 5628 5633 5636 5620 5615 5621 5598 5582 5597 5618 5629 5651 5653 5656 5661 5667 5670 5668 5666 5666 5666 5662 5659 5656 5651 5647 5644 5639 5634 5627 5623 5617 5610 5604 5595 5587 5578 5570 5563 5555 5547
5620 5608 5618 5624 5629 5624 5623 5624 5608 5602 5596 5594 5607 5614 5633 5645 5650 5653 5658 5664 5668 5665 5662 5661 5660 5657 5655 5651 5646 5640 5637 5633 5629 5621 5615 5609 5599 5590 5583 5575 5566 5556 5548 5538
5618 5618 5606 5616 5619 5622 5614 5612 5605 5609 5601 5604 5597 5617 5639 5645 5648 5649 5650 5657 5661 5665 5662 5659 5659 5657 5653 5649 5644 5639 5634 5629 5624 5618 5610 5601 5592 5584 5577 5568 5559 5549 5539 5528
5622 5611 5596 5612 5618 5624 5624 5619 5615 5603 5600 5589 5592 5613 5646 5643 5641 5642 5649 5651 5657 5658 5658 5655 5655 5651 5647 5643 5639 5636 5629 5623 5618 5611 5604 5595 5585 5577 5569 5560 5552 5542 5531 5520
5618 5602 5597 5603 5607 5613 5616 5616 5613 5604 5598 5594 5593 5614 5639 5640 5641 5642 5644 5648 5649 5650 5651 5650 5644 5640 5637 5634 5631 5626 5621 5618 5611 5601 5593 5583 5573 5567 5559 5550 5540 5531 5521 5510
5626 5604 5606 5603 5614 5615 5606 5614 5611 5615 5598 5607 5607 5622 5634 5639 5638 5644 5643 5641 5643 5641 5641 5638 5635 5633 5630 5626 5623 5617 5610 5603 5595 5588 5580 5569 5562 5554 5544 5536 5528 5516 5505 5497
5620 5606 5603 5609 5613 5613 5617 5618 5609 5611 5617 5610 5623 5611 5631 5636 5637 5635 5630 5633 5633 5629 5627 5628 5626 5623 5620 5616 5611 5605 5598 5590 5583 5573 5565 5556 5549 5540 5531 5522 5511 5500 5491 5480
5606 5605 5602 5601 5604 5605 5609 5614 5609 5608 5610 5608 5612 5613 5633 5630 5627 5624 5621 5621 5617 5614 5611 5610 5609 5608 5605 5602 5598 5590 5582 5575 5568 5561 5549 5540 5532 5522 5511 5501 5492 5484 5473 5465
5596 5594 5592 5595 5590 5596 5588 5606 5612 5612 5615 5620 5608 5626 5623 5621 5618 5613 5610 5608 5603 5597 5593 5591 5589 5588 5585 5581 5576 5570 5564 5558 5550 5541 5530 5521 5513 5503 5494 5485 5476 5467 5457 5448
5591 5590 5583 5577 5568 5575 5618 5614 5617 5616 5620 5617 5616 5620 5618 5615 5598 5593 5591 5594 5585 5579 5577 5574 5573 5571 5567 5564 5559 5553 5547 5540 5533 5523 5514 5505 5497 5487 5477 5468 5457 5449 5440 5431
5595 5584 5573 5574 5579 5594 5608 5611 5612 5608 5630 5624 5620 5613 5600 5591 5588 5578 5568 5568 5565 5561 5559 5558 5556 5554 5551 5548 5544 5540 5533 5526 5518 5506 5496 5487 5479 5471 5460 5451 5441 5433 5426 5419
5576 5582 5588 5560 5575 5580 5611 5619 5615 5615 5613 5620 5616 5605 5594 5586 5591 5590 5558 5553 5550 5549 5547 5545 5542 5540 5537 5532 5530 5525 5516 5507 5497 5488 5478 5469 5462 5453 5444 5436 5428 5420 5413 5404
5570 5569 5577 5561 5576 5590 5609 5611 5610 5595 5616 5618 5614 5607 5598 5594 5587 5572 5549 5543 5542 5539 5534 5532 5531 5528 5522 5518 5513 5507 5497 5488 5479 5471 5461 5453 5444 5437 5428 5419 5411 5404 5397 5390
5582 5577 5571 5564 5568 5584 5610 5599 5601 5621 5612 5611 5605 5600 5593 5570 5556 5550 5541 5535 5531 5528 5524 5523 5520 5513 5505 5500 5497 5489 5479 5469 5461 5452 5443 5433 5425 5417 5410 5402 5394 5388 5382 5375
5571 5594 5594 5596 5600 5612 5612 5622 5617 5613 5612 5603 5600 5590 5575 5560 5551 5543 5535 5527 5523 5520 5516 5510 5505 5496 5488 5483 5479 5470 5458 5451 5442 5433 5423 5414 5406 5398 5391 5385 5377 5370 5362 5355
5569 5584 5594 5596 5608 5607 5607 5607 5604 5604 5604 5599 5596 5586 5572 5561 5546 5536 5527 5520 5516 5510 5503 5496 5490 5481 5471 5462 5455 5447 5439 5432 5424 5414 5405 5396 5388 5381 5373 5366 5358 5350 5341 5333
5578 5581 5586 5589 5599 5597 5602 5602 5600 5593 5588 5584 5578 5571 5565 5554 5540 5532 5523 5514 5506 5497 5488 5481 5473 5463 5450 5442 5433 5425 5419 5412 5405 5395 5386 5378 5370 5363 5357 5348 5338 5328 5318 5308
5579 5585 5586 5594 5616 5613 5619 5612 5591 5584 5582 5576 5568 5554 5548 5544 5534 5521 5510 5500 5492 5482 5473 5463 5452 5441 5429 5420 5413 5404 5397 5391 5385 5377 5368 5358 5353 5347 5340 5332 5322 5309 5298 5289